TimeEDT,TemperatureF,Dew PointF,Humidity,Sea Level PressureIn,VisibilityMPH,Wind Direction,Wind SpeedMPH,Gust SpeedMPH,PrecipitationIn,Events,Conditions,WindDirDegrees,DateUTC
12:53 AM,63.0,37.9,40,29.84,10.0,WNW,6.9,-,N/A,,Clear,300,2013-05-17 04:53:00
1:53 AM,53.1,43.0,69,29.86,10.0,Calm,Calm,-,N/A,,Clear,0,2013-05-17 05:53:00
2:53 AM,57.9,37.9,47,29.88,10.0,Calm,Calm,-,N/A,,Clear,0,2013-05-17 06:53:00
3:53 AM,57.0,39.0,51,29.91,10.0,NNE,4.6,-,N/A,,Clear,20,2013-05-17 07:53:00
4:53 AM,54.0,39.9,59,29.94,10.0,North,4.6,-,N/A,,Clear,350,2013-05-17 08:53:00
5:53 AM,48.0,42.1,80,29.98,10.0,Calm,Calm,-,N/A,,Clear,0,2013-05-17 09:53:00
6:53 AM,55.9,39.9,55,29.99,10.0,NNW,8.1,-,N/A,,Clear,340,2013-05-17 10:53:00
8:53 AM,55.9,39.0,53,30.06,10.0,North,10.4,-,N/A,,Clear,360,2013-05-17 12:53:00
9:53 AM,57.9,39.9,51,30.07,10.0,North,11.5,19.6,N/A,,Clear,360,2013-05-17 13:53:00
10:53 AM,60.1,39.9,47,30.09,10.0,NNE,8.1,17.3,N/A,,Clear,20,2013-05-17 14:53:00
11:53 AM,63.0,41.0,45,30.08,10.0,Variable,5.8,-,N/A,,Clear,0,2013-05-17 15:53:00
12:53 PM,66.0,42.1,42,30.06,10.0,NW,11.5,-,N/A,,Clear,320,2013-05-17 16:53:00
1:53 PM,66.0,39.9,38,30.07,10.0,NW,9.2,-,N/A,,Clear,320,2013-05-17 17:53:00
3:53 PM,71.1,41.0,34,30.06,10.0,NNE,5.8,-,N/A,,Clear,30,2013-05-17 19:53:00
4:53 PM,70.0,41.0,35,30.07,10.0,NE,10.4,-,N/A,,Clear,50,2013-05-17 20:53:00
5:53 PM,69.1,41.0,36,30.09,10.0,NNE,9.2,-,N/A,,Clear,30,2013-05-17 21:53:00
6:53 PM,68.0,39.9,36,30.10,10.0,East,4.6,-,N/A,,Clear,90,2013-05-17 22:53:00
7:53 PM,64.0,42.1,45,30.12,10.0,Calm,Calm,-,N/A,,Clear,0,2013-05-17 23:53:00
8:53 PM,57.9,45.0,62,30.15,10.0,Calm,Calm,-,N/A,,Clear,0,2013-05-18 00:53:00
9:53 PM,54.0,45.0,72,30.17,10.0,Calm,Calm,-,N/A,,Clear,0,2013-05-18 01:53:00
10:53 PM,51.1,46.0,83,30.18,10.0,Calm,Calm,-,N/A,,Clear,0,2013-05-18 02:53:00
11:53 PM,48.9,46.0,90,30.20,10.0,Calm,Calm,-,N/A,,Clear,0,2013-05-18 03:53:00